Weather History for Sanford, FL

Change the Weather History Date:

Sunday, February 26, 2012

  Actual Average Record
Temperature  
Mean Temperature 61 °F -  
Max Temperature 69 °F 72 °F 89 °F (1971)
Min Temperature 53 °F 47 °F 28 °F (1989)
Degree Days  
Heating Degree Days 4    
Growing Degree Days 11 (Base 50)    
Moisture  
Dew Point 53 °F    
Average Humidity 74    
Maximum Humidity 94    
Minimum Humidity 51    
Precipitation  
Precipitation 0.20 in - - ()
Sea Level Pressure  
Sea Level Pressure 30.31 in    
Wind  
Wind Speed 7 mph (ENE)    
Max Wind Speed 17 mph    
Max Gust Speed 22 mph    
Visibility 8 miles    
Events Rain    
Averages and records for this station are not official NWS values.
T = Trace of Precipitation, MM = Missing Value Source: NWS Daily Summary

Daily Weather History Graph

Daily Weather History Graph

Search for Another Location

Airport:

Trip Planner

Search our weather history database for the weather conditions in past years. The results will help you decide how hot, cold, wet, or windy it might be!

Date:

Astronomy

Feb. 26, 2012 Rise Set
Actual Time 6:53 AM EST 6:22 PM EST
Civil Twilight 6:29 AM EST 6:46 PM EST
Nautical Twilight 6:02 AM EST 7:13 PM EST
Astronomical Twilight 5:35 AM EST 7:41 PM EST
Moon 9:15 AM EST (2/26) 10:48 PM EST (2/26)
Length of Visible Light 12h 16m
Length of Day
11h 28m
Waxing Crescent, 20% of the Moon is Illuminated
Feb 26
Waxing Crescent
Feb 29
First Quarter
Mar 8
Full
Mar 14
Last Quarter
Mar 22
New

Hourly Weather History & Observations

Time (EST) Temp. Dew Point Humidity Pressure Visibility Wind Dir Wind Speed Gust Speed Precip Events Conditions
12:53 AM 53.1 °F 37.9 °F 57% 30.30 in 10.0 mi North 5.8 mph - N/A   Clear
1:53 AM 53.1 °F 37.0 °F 55% 30.29 in 10.0 mi North 8.1 mph - N/A   Clear
2:53 AM 55.4 °F 37.4 °F 51% 30.28 in 10.0 mi North 5.8 mph - N/A   Mostly Cloudy
3:53 AM 54.0 °F 39.9 °F 59% 30.29 in 10.0 mi North 6.9 mph - N/A   Clear
4:53 AM 54.0 °F 41.0 °F 62% 30.29 in 10.0 mi North 6.9 mph - N/A   Clear
5:53 AM 55.0 °F 42.1 °F 62% 30.30 in 10.0 mi North 6.9 mph - N/A   Partly Cloudy
6:53 AM 55.0 °F 42.1 °F 62% 30.29 in 10.0 mi NNE 8.1 mph - N/A   Overcast
7:53 AM 55.9 °F 44.1 °F 64% 30.31 in 10.0 mi NNE 5.8 mph - N/A   Overcast
8:53 AM 57.9 °F 46.0 °F 65% 30.33 in 10.0 mi NNE 4.6 mph - N/A   Overcast
9:53 AM 61.0 °F 48.9 °F 64% 30.36 in 10.0 mi North 8.1 mph - N/A   Overcast
10:53 AM 62.1 °F 50.0 °F 65% 30.38 in 10.0 mi NNE 5.8 mph - N/A   Overcast
11:53 AM 66.0 °F 52.0 °F 60% 30.35 in 10.0 mi East 11.5 mph - N/A   Overcast
12:53 PM 68.0 °F 53.1 °F 59% 30.32 in 10.0 mi East 16.1 mph 21.9 mph N/A   Overcast
1:53 PM 69.1 °F 54.0 °F 58% 30.30 in 10.0 mi ESE 17.3 mph - N/A   Overcast
2:53 PM 66.9 °F 55.0 °F 66% 30.29 in 10.0 mi East 13.8 mph - 0.00 in Rain Light Rain
3:38 PM 66.2 °F 57.2 °F 73% 30.29 in 5.0 mi East 9.2 mph - 0.00 in Rain Light Rain
3:53 PM 64.9 °F 57.9 °F 78% 30.29 in 10.0 mi East 9.2 mph - 0.00 in   Overcast
4:26 PM 64.4 °F 57.2 °F 77% 30.28 in 5.0 mi East 8.1 mph - 0.01 in Rain Light Rain
4:37 PM 64.4 °F 59.0 °F 83% 30.29 in 1.5 mi East 6.9 mph - 0.03 in Rain Rain
4:53 PM 64.9 °F 60.1 °F 84% 30.29 in 1.5 mi East 5.8 mph - 0.04 in Rain Light Rain
5:53 PM 64.0 °F 60.1 °F 87% 30.29 in 10.0 mi ENE 8.1 mph - 0.01 in   Overcast
6:53 PM 63.0 °F 60.1 °F 90% 30.30 in 7.0 mi NE 6.9 mph - 0.00 in Rain Light Rain
7:53 PM 63.0 °F 60.1 °F 90% 30.30 in 10.0 mi East 5.8 mph - 0.03 in   Overcast
8:00 PM 62.6 °F 60.8 °F 94% 30.30 in 10.0 mi East 4.6 mph - N/A   Overcast
8:53 PM 64.0 °F 61.0 °F 90% 30.30 in 8.0 mi ESE 5.8 mph - 0.00 in Rain Light Rain
9:53 PM 64.9 °F 61.0 °F 87% 30.31 in 10.0 mi East 4.6 mph - 0.01 in   Overcast
10:35 PM 64.4 °F 62.6 °F 94% 30.31 in 2.5 mi Calm Calm - 0.06 in Rain Heavy Rain
10:51 PM 64.4 °F 62.6 °F 94% 30.31 in 3.0 mi East 5.8 mph - 0.11 in Rain Rain
10:53 PM 64.9 °F 62.1 °F 90% 30.31 in 3.0 mi East 5.8 mph - 0.11 in Rain Rain
11:53 PM 64.0 °F 62.1 °F 93% 30.30 in 10.0 mi Calm Calm - 0.00 in   Mostly Cloudy